Simultaneous Nadir Overpasses (SNOs) Predictions

Prediction of SNOs between LANDSAT-8 and METOP-A Satellite Orbit:

Table of predicted SNOs for the next 14.0 days since TLE Epoch: 11/13/2020
Index Date (LANDSAT-8) Time (LANDSAT-8) Lat,Lon (LANDSAT-8) SZA (LANDSAT-8 ) Date (METOP-A) Time (METOP-A) Lat,Lon (METOP-A) SZA (METOP-A ) Distance(km) Time Diff (sec)
1 11/15/2020 05:58:44 -81.45, -43.85 77.07 11/15/2020 05:58:14 -81.44, -43.78 77.09 1.48 30
2 11/15/2020 06:48:11 81.44, 123.55 102.91 11/15/2020 06:48:55 81.44, 123.59 102.93 0.73 44
3 11/18/2020 01:33:01 -81.44, 22.30 76.44 11/18/2020 01:32:37 -81.44, 22.45 76.43 2.51 24
4 11/18/2020 02:22:27 81.44,-169.94 103.59 11/18/2020 02:23:17 81.43,-169.80 103.62 2.48 50
5 11/20/2020 21:07:17 -81.44, 88.80 75.81 11/20/2020 21:07:00 -81.45, 88.66 75.83 2.52 17
6 11/20/2020 21:56:42 81.44,-103.47 104.21 11/20/2020 21:57:39 81.44,-103.62 104.22 2.54 57
7 11/23/2020 16:41:32 -81.44, 155.26 75.24 11/23/2020 16:41:21 -81.44, 155.24 75.25 0.41 11
8 11/23/2020 17:30:58 81.44, -37.04 104.78 11/23/2020 17:32:01 81.43, -37.06 104.80 1.29 63
9 11/26/2020 12:15:48 -81.44,-138.32 74.73 11/26/2020 12:15:43 -81.44,-138.21 74.72 1.96 5
